Hourly Weather Abakanovo

Today, 19 October, Monday

Time Temperature Precipitation Wind Pressure Humidity
00:00 0°C° 0 mm 4 mps 728 mmHg 89%
01:00 0°C° 0 mm 4 mps 729 mmHg 90%
02:00 0°C° 0 mm 4 mps 730 mmHg 91%
03:00 0°C° 0 mm 4 mps 730 mmHg 89%
04:00 0°C° 0 mm 4 mps 730 mmHg 88%
05:00 0°C° 0 mm 4 mps 731 mmHg 86%
06:00 0°C° 0 mm 4 mps 731 mmHg 86%
07:00 0°C° 0 mm 4 mps 731 mmHg 87%
08:00 0°C° 0 mm 5 mps 732 mmHg 86%
09:00 0°C° 0 mm 5 mps 732 mmHg 85%
10:00 +1°C° 0 mm 5 mps 732 mmHg 83%
11:00 +1°C° 0 mm 5 mps 732 mmHg 82%
12:00 +1°C° 0.2 mm 5 mps 732 mmHg 79%
13:00 +1°C° 0.2 mm 5 mps 732 mmHg 77%
14:00 +2°C° 0.2 mm 5 mps 732 mmHg 74%
15:00 +1°C° 0 mm 5 mps 732 mmHg 75%
16:00 +1°C° 0 mm 5 mps 732 mmHg 76%
17:00 0°C° 0 mm 4 mps 732 mmHg 77%
18:00 0°C° 0.1 mm 5 mps 732 mmHg 78%
19:00 0°C° 0.1 mm 5 mps 732 mmHg 80%
20:00 0°C° 0.1 mm 5 mps 732 mmHg 82%
21:00 0°C° 0.2 mm 5 mps 732 mmHg 84%
22:00 0°C° 0.2 mm 5 mps 733 mmHg 86%
23:00 0°C° 0.2 mm 5 mps 733 mmHg 88%

Tomorrow, 20 October, Tuesday

Time Temperature Precipitation Wind Pressure Humidity
00:00 0°C° 0.2 mm 5 mps 733 mmHg 91%
01:00 -1°C° 0.2 mm 5 mps 734 mmHg 93%
02:00 -1°C° 0.2 mm 5 mps 734 mmHg 95%
03:00 -1°C° 0.7 mm 5 mps 734 mmHg 95%
04:00 -1°C° 0.7 mm 4 mps 734 mmHg 95%
05:00 -1°C° 0.7 mm 4 mps 734 mmHg 96%
06:00 -1°C° 0.8 mm 4 mps 734 mmHg 95%
07:00 -1°C° 0.8 mm 5 mps 735 mmHg 94%
08:00 -1°C° 0.8 mm 5 mps 735 mmHg 93%
09:00 0°C° 0.2 mm 5 mps 736 mmHg 90%
10:00 0°C° 0.2 mm 5 mps 737 mmHg 87%
11:00 0°C° 0.2 mm 5 mps 737 mmHg 84%
12:00 0°C° 0.1 mm 5 mps 738 mmHg 83%
13:00 0°C° 0.1 mm 5 mps 739 mmHg 81%
14:00 +1°C° 0.1 mm 4 mps 740 mmHg 80%
15:00 0°C° 0.1 mm 4 mps 740 mmHg 83%
16:00 +1°C° 0.1 mm 3 mps 740 mmHg 85%
17:00 0°C° 0.1 mm 3 mps 741 mmHg 88%
18:00 0°C° 0.1 mm 3 mps 741 mmHg 88%
19:00 +1°C° 0.1 mm 2 mps 742 mmHg 88%
20:00 +1°C° 0.1 mm 2 mps 742 mmHg 88%
21:00 -1°C° 0 mm 2 mps 742 mmHg 90%
22:00 -1°C° 0 mm 2 mps 742 mmHg 92%
23:00 -2°C° 0 mm 2 mps 742 mmHg 94%

Day after tomorrow, 21 October, Wednesday

Time Temperature Precipitation Wind Pressure Humidity
00:00 0°C° 0 mm 1 mps 742 mmHg 94%
01:00 0°C° 0 mm 1 mps 742 mmHg 93%
02:00 0°C° 0 mm 1 mps 742 mmHg 93%
03:00 0°C° 0 mm 1 mps 742 mmHg 92%
04:00 0°C° 0 mm 1 mps 742 mmHg 91%
05:00 0°C° 0 mm 1 mps 742 mmHg 90%
06:00 -1°C° 0 mm 2 mps 741 mmHg 91%
07:00 +1°C° 0 mm 2 mps 741 mmHg 92%
08:00 +1°C° 0 mm 2 mps 741 mmHg 94%
09:00 +1°C° 0.1 mm 2 mps 741 mmHg 94%
10:00 +2°C° 0.1 mm 2 mps 740 mmHg 95%
11:00 +2°C° 0.1 mm 2 mps 740 mmHg 96%
12:00 +2°C° 0.2 mm 2 mps 740 mmHg 96%
13:00 +2°C° 0.2 mm 2 mps 740 mmHg 97%
14:00 +2°C° 0.2 mm 2 mps 739 mmHg 97%
15:00 +2°C° 0.1 mm 2 mps 739 mmHg 97%
16:00 +3°C° 0.1 mm 2 mps 739 mmHg 98%
17:00 +3°C° 0.1 mm 2 mps 738 mmHg 98%
18:00 +3°C° 0.2 mm 2 mps 738 mmHg 98%
19:00 +3°C° 0.2 mm 2 mps 739 mmHg 98%
20:00 +3°C° 0.2 mm 2 mps 739 mmHg 98%
21:00 +3°C° 0.1 mm 2 mps 738 mmHg 98%
22:00 +3°C° 0.1 mm 2 mps 738 mmHg 98%
23:00 +4°C° 0.1 mm 2 mps 738 mmHg 98%

22 October, Thursday

Time Temperature Precipitation Wind Pressure Humidity
00:00 +4°C° 0 mm 2 mps 738 mmHg 98%
01:00 +4°C° 0 mm 2 mps 738 mmHg 98%
02:00 +4°C° 0 mm 2 mps 737 mmHg 98%
03:00 +4°C° 0 mm 2 mps 737 mmHg 97%
04:00 +3°C° 0 mm 3 mps 736 mmHg 97%
05:00 +3°C° 0 mm 3 mps 736 mmHg 96%
06:00 +3°C° 0.6 mm 3 mps 735 mmHg 96%
07:00 +3°C° 0.6 mm 4 mps 734 mmHg 96%
08:00 +4°C° 0.6 mm 4 mps 734 mmHg 96%
09:00 +4°C° 1.3 mm 4 mps 733 mmHg 96%
10:00 +5°C° 1.3 mm 4 mps 733 mmHg 95%
11:00 +5°C° 1.3 mm 4 mps 732 mmHg 95%
12:00 +5°C° 0.6 mm 4 mps 732 mmHg 95%
13:00 +6°C° 0.6 mm 4 mps 731 mmHg 95%
14:00 +6°C° 0.6 mm 4 mps 731 mmHg 95%
15:00 +7°C° 0.1 mm 4 mps 731 mmHg 94%
16:00 +8°C° 0.1 mm 4 mps 731 mmHg 93%
17:00 +10°C° 0.1 mm 4 mps 731 mmHg 91%
18:00 +10°C° 0.1 mm 4 mps 731 mmHg 92%
19:00 +9°C° 0.1 mm 5 mps 731 mmHg 92%
20:00 +9°C° 0.1 mm 5 mps 731 mmHg 93%
21:00 +9°C° 0.3 mm 5 mps 731 mmHg 92%
22:00 +10°C° 0.3 mm 5 mps 731 mmHg 91%
23:00 +10°C° 0.3 mm 5 mps 731 mmHg 90%

23 October, Friday

Time Temperature Precipitation Wind Pressure Humidity
00:00 +10°C° 0.1 mm 5 mps 731 mmHg 90%
01:00 +10°C° 0.1 mm 5 mps 731 mmHg 90%
02:00 +10°C° 0.1 mm 5 mps 731 mmHg 90%
03:00 +10°C° 0.1 mm 5 mps 731 mmHg 89%
04:00 +9°C° 0.1 mm 5 mps 731 mmHg 88%
05:00 +9°C° 0.1 mm 5 mps 731 mmHg 87%
06:00 +9°C° 0.1 mm 5 mps 730 mmHg 87%
07:00 +9°C° 0.1 mm 5 mps 730 mmHg 86%
08:00 +9°C° 0.1 mm 5 mps 730 mmHg 86%
09:00 +10°C° 0.2 mm 5 mps 730 mmHg 84%
10:00 +10°C° 0.2 mm 5 mps 730 mmHg 82%
11:00 +10°C° 0.2 mm 5 mps 730 mmHg 80%
12:00 +10°C° 0.1 mm 5 mps 730 mmHg 79%
13:00 +10°C° 0.1 mm 5 mps 730 mmHg 77%
14:00 +10°C° 0.1 mm 5 mps 730 mmHg 76%
15:00 +10°C° 0.1 mm 4 mps 729 mmHg 78%
16:00 +9°C° 0.1 mm 3 mps 729 mmHg 81%
17:00 +8°C° 0.1 mm 3 mps 729 mmHg 83%
18:00 +8°C° 0 mm 3 mps 729 mmHg 81%
19:00 +6°C° 0 mm 4 mps 730 mmHg 80%
20:00 +6°C° 0 mm 4 mps 730 mmHg 78%
21:00 +6°C° 0 mm 4 mps 730 mmHg 78%
22:00 +6°C° 0 mm 4 mps 730 mmHg 78%
23:00 +6°C° 0 mm 4 mps 730 mmHg 79%

24 October, Saturday

Time Temperature Precipitation Wind Pressure Humidity
00:00 +6°C° 0 mm 4 mps 730 mmHg 81%
01:00 +5°C° 0 mm 4 mps 731 mmHg 83%
02:00 +5°C° 0 mm 5 mps 731 mmHg 85%
03:00 +4°C° 0 mm 4 mps 731 mmHg 83%
04:00 +3°C° 0 mm 4 mps 731 mmHg 81%
05:00 +3°C° 0 mm 4 mps 732 mmHg 78%
06:00 +3°C° 0 mm 4 mps 732 mmHg 76%
07:00 +3°C° 0 mm 4 mps 732 mmHg 74%
08:00 +3°C° 0 mm 4 mps 733 mmHg 72%
09:00 +3°C° 0 mm 4 mps 733 mmHg 71%
10:00 +2°C° 0 mm 5 mps 734 mmHg 70%
11:00 +3°C° 0 mm 5 mps 734 mmHg 69%
12:00 +4°C° 0 mm 4 mps 735 mmHg 69%
13:00 +4°C° 0 mm 4 mps 735 mmHg 68%
14:00 +4°C° 0 mm 4 mps 736 mmHg 68%
15:00 +3°C° 0 mm 4 mps 736 mmHg 71%
16:00 +3°C° 0 mm 3 mps 736 mmHg 73%
17:00 +2°C° 0 mm 3 mps 736 mmHg 76%
18:00 +3°C° 0 mm 2 mps 736 mmHg 75%
19:00 +3°C° 0 mm 2 mps 737 mmHg 74%
20:00 +3°C° 0 mm 2 mps 737 mmHg 73%
21:00 +3°C° 0 mm 2 mps 738 mmHg 74%
22:00 +3°C° 0 mm 2 mps 738 mmHg 74%
23:00 +3°C° 0 mm 2 mps 738 mmHg 75%

25 October, Sunday

Time Temperature Precipitation Wind Pressure Humidity
00:00 +3°C° 0 mm 2 mps 738 mmHg 76%
01:00 +2°C° 0 mm 2 mps 738 mmHg 78%
02:00 +3°C° 0 mm 1 mps 738 mmHg 80%
03:00 +3°C° 0 mm 1 mps 738 mmHg 80%
04:00 +3°C° 0 mm 1 mps 739 mmHg 80%
05:00 +2°C° 0 mm 2 mps 739 mmHg 80%
06:00 +2°C° 0 mm 2 mps 739 mmHg 80%
07:00 +2°C° 0 mm 2 mps 740 mmHg 79%
08:00 +3°C° 0 mm 2 mps 740 mmHg 79%
09:00 +3°C° 0 mm 2 mps 740 mmHg 75%
10:00 +3°C° 0 mm 3 mps 741 mmHg 72%
11:00 +4°C° 0 mm 3 mps 741 mmHg 68%
12:00 +4°C° 0 mm 3 mps 741 mmHg 68%
13:00 +4°C° 0 mm 3 mps 742 mmHg 67%
14:00 +4°C° 0 mm 3 mps 742 mmHg 66%
15:00 +4°C° 0 mm 2 mps 742 mmHg 69%
16:00 +3°C° 0 mm 2 mps 742 mmHg 72%
17:00 +3°C° 0 mm 2 mps 742 mmHg 75%
18:00 +3°C° 0 mm 2 mps 743 mmHg 76%
19:00 +3°C° 0 mm 2 mps 743 mmHg 78%
20:00 +3°C° 0 mm 2 mps 743 mmHg 79%
21:00 +2°C° 0 mm 2 mps 744 mmHg 81%
22:00 +2°C° 0 mm 2 mps 744 mmHg 83%
23:00 +1°C° 0 mm 2 mps 744 mmHg 84%
Show more